Zurück zum Katalog

STARLINK-33829

AktivKommunikationVLEO
NORAD 63496·PAYLOAD·🇺🇸 United States

Gestartet Apr 7, 2025 von Vandenberg Space Force Base

Loading…

Nächste Überflüge (nächste 24 Stunden)

TLE

AktuellSource: CelesTrak SupGP

Epoche: Sep 14, 2026, 14:17 UTC

1 63496C 25071D   26257.59562500 -.00028540  00000+0 -91814-3 0  2570
2 63496  53.1607 341.4666 0001250  78.5720  26.4063 15.31703982    10

Verfolge STARLINK-33829 in Echtzeit mit AllMySat

Download on the App Store